Location: Sternwarte ZA, Rosenfeld-Brittheim
(48.2889°N, 8.6789°E)
Time: 10:45:36
(UTC+01:00)

ISS - Pass Details

Date: 22 January 2019
Orbit: 404 x 407 km, 51.6° (Epoch: 16 January)

Event Time Altitude Azimuth Distance (km) Brightness Sun altitude
Rises 19:24:21 0° 216° (SW) 2,315 0.6 -22.3°
Reaches altitude 10° 19:26:35 10° 205° (SSW) 1,459 -0.7 -22.7°
Enters shadow 19:27:36 17° 193° (SSW) 1,121 -1.4 -22.8°
